Regional Weather Roundup
Issued by NWS Burlington, VT

Home | Current Version | Previous Version | Text Only | Print | Product List | Glossary On
Versions: 1 2 3 4 5 6 7 8 9 10 11 12 13 14 15 16 17 18 19 20 21 22 23 24 25 26 27 28 29 30 31 32 33 34 35 36 37 38 39 40 41 42 43 44 45 46 47 48 49 50
000
ASUS41 KBTV 230130
RWRBTV
VERMONT REGIONAL WEATHER ROUNDUP
NATIONAL WEATHER SERVICE BURLINGTON VT
800 PM EST MON DEC 22 2014

NOTE: "FAIR" INDICATES FEW OR NO CLOUDS BELOW 12,000 FEET WITH NO
SIGNIFICANT WEATHER AND/OR OBSTRUCTIONS TO VISIBILITY.

* THESE REPORTS ARE NOT UNDER NWS QUALITY CONTROL AND/OR DO NOT
  REPORT WEATHER SUCH AS PRECIPITATION AND FOG.

VTZ001>019-230200-
_____VERMONT_____


CITY           SKY/WX    TMP DP  RH WIND       PRES   REMARKS
BURLINGTON     CLOUDY    26  21  81 NW3       30.29F FOG
MONTPELIER     CLOUDY    32  29  88 S5        30.32S
MORRISVILLE    CLOUDY    31  26  82 S3        30.31R
ST. JOHNSBURY*   N/A     32  27  81 MISG      30.30F
LYNDONVILLE*   CLOUDY    31  25  80 SE3       30.30S
MIDDLEBURY*    CLOUDY    29  27  94 CALM      30.27F
RUTLAND*       CLOUDY    34  30  86 S7        30.27F
SPRINGFIELD    CLOUDY    31  31 100 CALM      30.31F FOG
HIGHGATE*      CLOUDY    21  18  88 CALM      30.30F
NEWPORT*       CLOUDY    28  26  89 CALM      30.29S
BENNINGTON     CLOUDY    37  31  78 SE9       30.24F
SUTTON*          N/A     28 N/A N/A MISG        N/A
GALLUP MILLS*    N/A     28 N/A N/A MISG        N/A
UNION VILLAGE*   N/A     32 N/A N/A MISG        N/A
MT. MANSFIELD*   N/A     25 N/A N/A CALM        N/A

_____LAKE CHAMPLAIN_____


CITY           SKY/WX    TMP DP  RH WIND       PRES   REMARKS
BURTON ISLAND*   N/A     25  21  86 NE1         N/A
COLCHESTER RF*   N/A     27  25  93 N6          N/A

$$

NYZ007-026>031-035-052-083-230200-
_____NORTHERN NEW YORK_____


CITY           SKY/WX    TMP DP  RH WIND       PRES   REMARKS
PLATTSBURGH    CLOUDY    23  18  81 N3        30.31S
SARANAC LAKE   CLOUDY    23  21  92 NE6       30.17S
MASSENA        CLOUDY    22  17  81 E12       30.28S WCI  10
OGDENSBURG*    CLEAR     21  19  93 NE5       30.22S
POTSDAM*       CLEAR     21  21 100 E8        30.21F
STARK FALLS*     N/A     30 N/A N/A SE2         N/A
WATERTOWN      MOCLDY    29  23  78 E6        30.18S
FT DRUM        PTCLDY    34  26  72 S8        30.17R
ALBANY         CLOUDY    34  27  75 N3        30.28R
GLENS FALLS    CLOUDY    32  26  78 CALM      30.27F

$$
NHZ002-005-011-230200-
_____NEW HAMPSHIRE_____


CITY           SKY/WX    TMP DP  RH WIND       PRES   REMARKS
LEBANON        CLOUDY    33  29  85 CALM      30.32R
KEENE          CLOUDY    36  32  87 CALM      30.30F
MT WASHINGTON  FOG       16  16 100 S17         N/A  VSB 1/16WCI   0
PLYMOUTH       LGT SNOW  32  32 100 CALM      30.35S
WHITEFIELD     MOCLDY    32  26  78 CALM      30.30R

$$

_____REGIONAL QUEBEC LOCATIONS_____


CITY           SKY/WX    TMP DP  RH WIND       PRES   REMARKS
MONTREAL       CLOUDY    19  16  86 NE13      30.32F WCI   7
QUEBEC CITY    MOCLDY    21  16  79 N5        30.37F
SHERBROOKE     CLOUDY    27  27 100 CALM      30.29F

_____REGIONAL ONTARIO LOCATIONS_____


CITY           SKY/WX    TMP DP  RH WIND       PRES   REMARKS
OTTAWA         CLOUDY    21  18  86 E9        30.25F

______KEY______
VSB  - VISIBILITY IN MILES
WCI  - WIND CHILL INDEX
HX   - HEAT INDEX
$$
NNNN



USA.gov is the U.S. government's official web portal to all federal, state and local government web resources and services.